START_TIME,STEP,MOV.,M15,t_acc.,M20,t_acc.
1979-07-28 18:00:43.070 ,0,1,0.,24.0,0.,24.0
1979-07-28 18:01:07.070 ,4,1,0.,24.0,0.,24.0
1979-07-28 18:01:31.070 ,7,1,0.,24.0,0.,24.0
1979-07-28 18:01:55.070 ,3,1,0.,24.0,0.,24.0
1979-07-28 18:02:19.070 ,0,1,0.,24.0,0.,24.0
1979-07-28 18:02:43.070 ,4,1,0.,24.0,0.,24.0
1979-07-28 18:03:07.070 ,7,1,0.,24.0,0.,24.0
1979-07-28 18:03:31.070 ,3,1,0.,24.0,0.,24.0
1979-07-28 18:03:55.070 ,0,1,1.,24.0,0.,24.0
1979-07-28 18:04:19.070 ,4,1,0.,24.0,0.,24.0
1979-07-28 18:04:43.070 ,7,1,0.,24.0,0.,24.0
1979-07-28 18:05:07.070 ,3,1,0.,24.0,0.,24.0
1979-07-28 18:05:31.070 ,0,1,0.,24.0,0.,24.0
1979-07-28 18:05:55.070 ,0,0,0.,24.0,0.,24.0
1979-07-28 18:06:19.070 ,0,0,0.,24.0,0.,24.0
1979-07-28 18:06:43.070 ,5,1,0.,24.0,0.,24.0
1979-07-28 18:07:07.070 ,5,0,0.,24.0,0.,24.0
1979-07-28 18:07:31.070 ,4,1,0.,24.0,0.,24.0
1979-07-28 18:07:55.070 ,4,0,0.,24.0,0.,24.0
1979-07-28 18:08:19.070 ,3,1,0.,24.0,0.,24.0
1979-07-28 18:08:43.070 ,3,0,0.,24.0,0.,24.0
1979-07-28 18:09:07.070 ,2,1,0.,24.0,0.,24.0
1979-07-28 18:09:31.070 ,2,0,0.,24.0,0.,24.0
1979-07-28 18:09:55.070 ,1,1,0.,24.0,0.,24.0
1979-07-28 18:10:19.070 ,1,0,0.,24.0,0.,24.0
1979-07-28 18:10:43.070 ,0,1,0.,24.0,0.,24.0
1979-07-28 18:11:07.070 ,0,0,0.,24.0,0.,24.0
1979-07-28 18:11:31.070 ,0,1,0.,24.0,0.,24.0
1979-07-28 18:11:55.070 ,0,0,0.,24.0,0.,24.0
1979-07-28 18:12:19.070 ,1,1,0.,24.0,0.,24.0
1979-07-28 18:12:43.070 ,1,0,0.,24.0,0.,24.0
1979-07-28 18:13:07.070 ,2,1,0.,24.0,0.,24.0
1979-07-28 18:13:31.070 ,2,0,0.,24.0,0.,24.0
1979-07-28 18:13:55.070 ,3,1,0.,24.0,0.,24.0
1979-07-28 18:14:19.070 ,3,0,0.,24.0,0.,24.0
1979-07-28 18:14:43.070 ,4,1,0.,24.0,0.,24.0
1979-07-28 18:15:07.070 ,4,0,0.,24.0,0.,24.0
1979-07-28 18:15:31.070 ,5,1,0.,24.0,0.,24.0
1979-07-28 18:15:55.070 ,5,0,0.,24.0,0.,24.0
1979-07-28 18:16:19.070 ,6,1,0.,24.0,0.,24.0
1979-07-28 18:16:43.070 ,6,0,0.,24.0,0.,24.0
1979-07-28 18:17:07.070 ,7,1,1.,24.0,0.,24.0
1979-07-28 18:17:31.070 ,7,0,0.,24.0,0.,24.0
1979-07-28 18:17:55.070 ,7,1,0.,24.0,0.,24.0
1979-07-28 18:18:19.070 ,7,0,0.,24.0,0.,24.0
1979-07-28 18:18:43.070 ,6,1,0.,24.0,0.,24.0
1979-07-28 18:19:07.070 ,6,0,0.,24.0,0.,24.0
1979-07-28 18:19:31.070 ,5,1,0.,24.0,0.,24.0
1979-07-28 18:19:55.070 ,5,0,0.,24.0,0.,24.0
1979-07-28 18:20:19.070 ,4,1,0.,24.0,0.,24.0
1979-07-28 18:20:43.070 ,4,0,0.,24.0,0.,24.0
1979-07-28 18:21:07.070 ,3,1,0.,24.0,0.,24.0
1979-07-28 18:21:31.070 ,3,0,0.,24.0,0.,24.0
1979-07-28 18:21:55.070 ,2,1,0.,24.0,0.,24.0
1979-07-28 18:22:19.070 ,2,0,0.,24.0,0.,24.0
1979-07-28 18:22:43.070 ,1,1,0.,24.0,0.,24.0
1979-07-28 18:23:07.070 ,1,0,0.,24.0,0.,24.0
1979-07-28 18:23:31.070 ,0,1,0.,24.0,0.,24.0
1979-07-28 18:23:55.070 ,0,0,0.,24.0,0.,24.0
1979-07-28 18:24:19.070 ,0,1,0.,24.0,0.,24.0
1979-07-28 18:24:43.070 ,0,0,0.,24.0,0.,24.0
1979-07-28 18:25:07.070 ,1,1,0.,24.0,0.,24.0
1979-07-28 18:25:31.070 ,1,0,0.,24.0,0.,24.0
1979-07-28 18:25:55.070 ,2,1,0.,24.0,0.,24.0
1979-07-28 18:26:19.070 ,2,0,0.,24.0,0.,24.0
1979-07-28 18:26:43.070 ,3,1,0.,24.0,0.,24.0
1979-07-28 18:27:07.070 ,3,0,0.,24.0,0.,24.0
1979-07-28 18:27:31.070 ,4,1,0.,24.0,0.,24.0
1979-07-28 18:27:55.070 ,4,0,0.,24.0,0.,24.0
1979-07-28 18:28:19.070 ,5,1,0.,24.0,0.,24.0
1979-07-28 18:28:43.070 ,5,0,0.,24.0,0.,24.0
1979-07-28 18:29:07.070 ,6,1,0.,24.0,0.,24.0
1979-07-28 18:29:31.070 ,6,0,0.,24.0,0.,24.0
1979-07-28 18:29:55.070 ,7,1,0.,24.0,0.,24.0
1979-07-28 18:30:19.070 ,7,0,0.,24.0,0.,24.0
1979-07-28 18:30:43.070 ,7,1,0.,24.0,0.,24.0
1979-07-28 18:31:07.070 ,7,0,0.,24.0,0.,24.0
1979-07-28 18:31:31.070 ,6,1,0.,24.0,0.,24.0
1979-07-28 18:31:55.070 ,6,0,0.,24.0,0.,24.0
1979-07-28 18:32:19.070 ,5,1,0.,24.0,0.,24.0
1979-07-28 18:32:43.070 ,5,0,0.,24.0,0.,24.0
1979-07-28 18:33:07.070 ,4,1,0.,24.0,0.,24.0
1979-07-28 18:33:31.070 ,4,0,0.,24.0,0.,24.0
1979-07-28 18:33:55.070 ,3,1,0.,24.0,0.,24.0
1979-07-28 18:34:19.060 ,3,0,0.,24.0,0.,24.0
1979-07-28 18:34:43.060 ,2,1,0.,24.0,0.,24.0
1979-07-28 18:35:07.060 ,2,0,0.,24.0,0.,24.0
1979-07-28 18:35:31.060 ,1,1,0.,24.0,0.,24.0
1979-07-28 18:35:55.060 ,1,0,0.,24.0,0.,24.0
1979-07-28 18:36:19.060 ,0,1,0.,24.0,0.,24.0
1979-07-28 18:36:43.060 ,0,0,0.,24.0,0.,24.0
1979-07-28 18:37:07.060 ,0,1,0.,24.0,0.,24.0
1979-07-28 18:37:31.060 ,0,0,0.,24.0,0.,24.0
1979-07-28 18:37:55.060 ,1,1,0.,24.0,0.,24.0
1979-07-28 18:38:19.060 ,1,0,0.,24.0,0.,24.0
1979-07-28 18:38:43.060 ,2,1,0.,24.0,0.,24.0
1979-07-28 18:39:07.060 ,2,0,0.,24.0,0.,24.0
1979-07-28 18:39:31.060 ,3,1,0.,24.0,0.,24.0
1979-07-28 18:39:55.060 ,3,0,0.,24.0,0.,24.0
1979-07-28 18:40:19.060 ,4,1,0.,24.0,0.,24.0
1979-07-28 18:40:43.060 ,4,0,0.,24.0,0.,24.0
1979-07-28 18:41:07.060 ,5,1,0.,24.0,0.,24.0
1979-07-28 18:41:31.060 ,5,0,0.,24.0,0.,24.0
1979-07-28 18:41:55.060 ,6,1,0.,24.0,0.,24.0
1979-07-28 18:42:19.060 ,6,0,0.,24.0,0.,24.0
1979-07-28 18:42:43.060 ,7,0,0.,24.0,0.,24.0
1979-07-28 18:43:07.060 ,7,0,0.,24.0,0.,24.0
1979-07-28 18:43:31.060 ,3,1,0.,24.0,0.,24.0
1979-07-28 18:43:55.060 ,0,1,0.,24.0,0.,24.0
1979-07-28 18:44:19.060 ,4,1,0.,24.0,0.,24.0
1979-07-28 18:44:43.060 ,7,1,0.,24.0,0.,24.0
1979-07-28 18:45:07.060 ,3,1,0.,24.0,0.,24.0
1979-07-28 18:45:31.060 ,0,1,0.,24.0,0.,24.0
1979-07-28 18:45:55.060 ,4,1,0.,24.0,0.,24.0
1979-07-28 18:46:19.060 ,7,1,0.,24.0,0.,24.0
1979-07-28 18:46:43.060 ,3,1,0.,24.0,0.,24.0
1979-07-28 18:47:07.060 ,0,1,0.,24.0,0.,24.0
1979-07-28 18:47:31.060 ,4,1,0.,24.0,0.,24.0
1979-07-28 18:47:55.060 ,7,1,0.,24.0,0.,24.0
1979-07-28 18:48:19.060 ,3,1,0.,24.0,0.,24.0
1979-07-28 18:48:43.060 ,0,1,0.,24.0,0.,24.0
1979-07-28 18:49:07.060 ,4,1,0.,24.0,0.,24.0
1979-07-28 18:49:31.060 ,7,1,0.,24.0,0.,24.0
1979-07-28 18:49:55.060 ,3,1,0.,24.0,0.,24.0
1979-07-28 18:50:19.060 ,0,1,0.,24.0,0.,24.0
1979-07-28 18:50:43.060 ,4,1,0.,24.0,0.,24.0
1979-07-28 18:51:07.060 ,7,1,0.,24.0,0.,24.0
1979-07-28 18:51:31.060 ,3,1,0.,24.0,0.,24.0
1979-07-28 18:51:55.060 ,0,1,0.,24.0,0.,24.0
1979-07-28 18:52:19.060 ,4,1,0.,24.0,0.,24.0
1979-07-28 18:52:43.060 ,7,1,0.,24.0,0.,24.0
1979-07-28 18:53:07.060 ,3,1,0.,24.0,0.,24.0
1979-07-28 18:53:31.060 ,0,1,0.,24.0,0.,24.0
1979-07-28 18:53:55.060 ,0,0,0.,24.0,0.,24.0
1979-07-28 18:54:19.060 ,0,0,0.,24.0,0.,24.0
1979-07-28 18:54:43.060 ,5,1,0.,24.0,0.,24.0
1979-07-28 18:55:07.060 ,5,0,0.,24.0,0.,24.0
1979-07-28 18:55:31.060 ,4,1,0.,24.0,0.,24.0
1979-07-28 18:55:55.060 ,4,0,0.,24.0,0.,24.0
1979-07-28 18:56:19.060 ,3,1,0.,24.0,0.,24.0
1979-07-28 18:56:43.060 ,3,0,0.,24.0,0.,24.0
1979-07-28 18:57:07.060 ,2,1,0.,24.0,0.,24.0
1979-07-28 18:57:31.060 ,2,0,0.,24.0,0.,24.0
1979-07-28 18:57:55.060 ,1,1,0.,24.0,0.,24.0
1979-07-28 18:58:19.060 ,1,0,0.,24.0,0.,24.0
1979-07-28 18:58:43.060 ,0,1,0.,24.0,0.,24.0
1979-07-28 18:59:07.060 ,0,0,0.,24.0,0.,24.0
1979-07-28 18:59:31.060 ,0,1,0.,24.0,0.,24.0
1979-07-28 18:59:55.060 ,0,0,0.,24.0,0.,24.0
1979-07-28 19:00:19.060 ,1,1,0.,24.0,0.,24.0
1979-07-28 19:00:43.060 ,1,0,0.,24.0,0.,24.0
1979-07-28 19:01:07.060 ,2,1,0.,24.0,0.,24.0
1979-07-28 19:01:31.060 ,2,0,0.,24.0,0.,24.0
1979-07-28 19:01:55.060 ,3,1,0.,24.0,0.,24.0
1979-07-28 19:02:19.060 ,3,0,0.,24.0,0.,24.0
1979-07-28 19:02:43.060 ,4,1,0.,24.0,0.,24.0
1979-07-28 19:03:07.060 ,4,0,0.,24.0,0.,24.0
1979-07-28 19:03:31.060 ,5,1,0.,24.0,0.,24.0
1979-07-28 19:03:55.060 ,5,0,0.,24.0,0.,24.0
1979-07-28 19:04:19.060 ,6,1,0.,24.0,0.,24.0
1979-07-28 19:04:43.060 ,6,0,0.,24.0,0.,24.0
1979-07-28 19:05:07.060 ,7,1,0.,24.0,0.,24.0
1979-07-28 19:05:31.060 ,7,0,0.,24.0,0.,24.0
1979-07-28 19:05:55.060 ,7,1,0.,24.0,0.,24.0
1979-07-28 19:06:19.060 ,7,0,0.,24.0,0.,24.0
1979-07-28 19:06:43.060 ,6,1,0.,24.0,0.,24.0
1979-07-28 19:07:07.060 ,6,0,0.,24.0,0.,24.0
1979-07-28 19:07:31.060 ,5,1,0.,24.0,0.,24.0
1979-07-28 19:07:55.060 ,5,0,0.,24.0,0.,24.0
1979-07-28 19:08:19.060 ,4,1,0.,24.0,0.,24.0
1979-07-28 19:08:43.060 ,4,0,0.,24.0,0.,24.0
1979-07-28 19:09:07.060 ,3,1,0.,24.0,0.,24.0
1979-07-28 19:09:31.060 ,3,0,0.,24.0,0.,24.0
1979-07-28 19:09:55.060 ,2,1,0.,24.0,0.,24.0
1979-07-28 19:10:19.060 ,2,0,0.,24.0,0.,24.0
1979-07-28 19:10:43.060 ,1,1,0.,24.0,0.,24.0
1979-07-28 19:11:07.060 ,1,0,0.,24.0,0.,24.0
1979-07-28 19:11:31.060 ,0,1,0.,24.0,0.,24.0
1979-07-28 19:11:55.060 ,0,0,0.,24.0,0.,24.0
1979-07-28 19:12:19.060 ,0,1,0.,24.0,0.,24.0
1979-07-28 19:12:43.060 ,0,0,0.,24.0,0.,24.0
1979-07-28 19:13:07.060 ,1,1,0.,24.0,0.,24.0
1979-07-28 19:13:31.060 ,1,0,0.,24.0,0.,24.0
1979-07-28 19:13:55.060 ,2,1,0.,24.0,0.,24.0
1979-07-28 19:14:19.060 ,2,0,0.,24.0,0.,24.0
1979-07-28 19:14:43.060 ,3,1,0.,24.0,0.,24.0
1979-07-28 19:15:07.060 ,3,0,0.,24.0,0.,24.0
1979-07-28 19:15:31.060 ,4,1,0.,24.0,0.,24.0
1979-07-28 19:15:55.060 ,4,0,0.,24.0,0.,24.0
1979-07-28 19:16:19.060 ,5,1,0.,24.0,0.,24.0
1979-07-28 19:16:43.060 ,5,0,0.,24.0,0.,24.0
1979-07-28 19:17:07.060 ,6,1,0.,24.0,0.,24.0
1979-07-28 19:17:31.060 ,6,0,0.,24.0,0.,24.0
1979-07-28 19:17:55.060 ,7,1,0.,24.0,0.,24.0
1979-07-28 19:18:19.060 ,7,0,0.,24.0,0.,24.0
1979-07-28 19:18:43.060 ,7,1,0.,24.0,0.,24.0
1979-07-28 19:19:07.060 ,7,0,0.,24.0,0.,24.0
1979-07-28 19:19:31.060 ,6,1,0.,24.0,0.,24.0
1979-07-28 19:19:55.060 ,6,0,0.,24.0,0.,24.0
1979-07-28 19:20:19.060 ,5,1,0.,24.0,0.,24.0
1979-07-28 19:20:43.060 ,5,0,0.,24.0,0.,24.0
1979-07-28 19:21:07.060 ,4,1,0.,24.0,0.,24.0
1979-07-28 19:21:31.060 ,4,0,0.,24.0,0.,24.0
1979-07-28 19:21:55.060 ,3,1,0.,24.0,0.,24.0
1979-07-28 19:22:19.060 ,3,0,0.,24.0,0.,24.0
1979-07-28 19:22:43.060 ,2,1,0.,24.0,0.,24.0
1979-07-28 19:23:07.060 ,2,0,0.,24.0,0.,24.0
1979-07-28 19:23:31.060 ,1,1,0.,24.0,0.,24.0
1979-07-28 19:23:55.060 ,1,0,0.,24.0,0.,24.0
1979-07-28 19:24:19.060 ,0,1,0.,24.0,0.,24.0
1979-07-28 19:24:43.060 ,0,0,0.,24.0,0.,24.0
1979-07-28 19:25:07.060 ,0,1,0.,24.0,0.,24.0
1979-07-28 19:25:31.060 ,0,0,0.,24.0,0.,24.0
1979-07-28 19:25:55.060 ,1,1,0.,24.0,0.,24.0
1979-07-28 19:26:19.060 ,1,0,0.,24.0,0.,24.0
1979-07-28 19:26:43.060 ,2,1,0.,24.0,0.,24.0
1979-07-28 19:27:07.060 ,2,0,0.,24.0,0.,24.0
1979-07-28 19:27:31.060 ,3,1,0.,24.0,0.,24.0
1979-07-28 19:27:55.060 ,3,0,0.,24.0,0.,24.0
1979-07-28 19:28:19.060 ,4,1,0.,24.0,0.,24.0
1979-07-28 19:28:43.060 ,4,0,0.,24.0,0.,24.0
1979-07-28 19:29:07.060 ,5,1,0.,24.0,0.,24.0
1979-07-28 19:29:31.060 ,5,0,0.,24.0,0.,24.0
1979-07-28 19:29:55.060 ,6,1,0.,24.0,0.,24.0
1979-07-28 19:30:19.060 ,6,0,0.,24.0,0.,24.0
1979-07-28 19:30:43.060 ,7,0,0.,24.0,0.,24.0
1979-07-28 19:31:07.060 ,7,0,0.,24.0,0.,24.0
1979-07-28 19:31:31.060 ,3,1,0.,24.0,0.,24.0
1979-07-28 19:31:55.060 ,0,1,0.,24.0,0.,24.0
1979-07-28 19:32:19.060 ,4,1,0.,24.0,0.,24.0
1979-07-28 19:32:43.060 ,7,1,0.,24.0,0.,24.0
1979-07-28 19:33:07.060 ,3,1,0.,24.0,0.,24.0
1979-07-28 19:33:31.060 ,0,1,0.,24.0,0.,24.0
1979-07-28 19:33:55.060 ,4,1,0.,24.0,0.,24.0
1979-07-28 19:34:19.060 ,7,1,0.,24.0,0.,24.0
1979-07-28 19:34:43.060 ,3,1,0.,24.0,0.,24.0
1979-07-28 19:35:07.060 ,0,1,0.,24.0,0.,24.0
1979-07-28 19:35:31.060 ,4,1,0.,24.0,0.,24.0
1979-07-28 19:35:55.060 ,7,1,0.,24.0,0.,24.0
1979-07-28 19:36:19.060 ,3,1,0.,24.0,0.,24.0
1979-07-28 19:36:43.060 ,0,1,0.,24.0,0.,24.0
1979-07-28 19:37:07.060 ,4,1,0.,24.0,0.,24.0
1979-07-28 19:37:31.060 ,7,1,0.,24.0,0.,24.0
1979-07-28 19:37:55.060 ,3,1,0.,24.0,0.,24.0
1979-07-28 19:38:19.060 ,0,1,0.,24.0,0.,24.0
1979-07-28 19:38:43.060 ,4,1,0.,24.0,0.,24.0
1979-07-28 19:39:07.060 ,7,1,0.,24.0,0.,24.0
1979-07-28 19:39:31.060 ,3,1,0.,24.0,0.,24.0
1979-07-28 19:39:55.060 ,0,1,0.,24.0,0.,24.0
1979-07-28 19:40:19.060 ,4,1,0.,24.0,0.,24.0
1979-07-28 19:40:43.060 ,7,1,0.,24.0,0.,24.0
1979-07-28 19:41:07.060 ,3,1,0.,24.0,0.,24.0
1979-07-28 19:41:31.060 ,0,1,0.,24.0,0.,24.0
1979-07-28 19:41:55.060 ,0,0,0.,24.0,0.,24.0
1979-07-28 19:42:19.060 ,0,0,0.,24.0,0.,24.0
1979-07-28 19:42:43.060 ,5,1,0.,24.0,0.,24.0
1979-07-28 19:43:07.060 ,5,0,0.,24.0,0.,24.0
1979-07-28 19:43:31.060 ,4,1,0.,24.0,0.,24.0
1979-07-28 19:43:55.060 ,4,0,0.,24.0,0.,24.0
1979-07-28 19:44:19.060 ,3,1,0.,24.0,0.,24.0
1979-07-28 19:44:43.060 ,3,0,0.,24.0,0.,24.0
1979-07-28 19:45:07.060 ,2,1,0.,24.0,0.,24.0
1979-07-28 19:45:31.060 ,2,0,0.,24.0,0.,24.0
1979-07-28 19:45:55.060 ,1,1,0.,24.0,0.,24.0
1979-07-28 19:46:19.060 ,1,0,0.,24.0,0.,24.0
1979-07-28 19:46:43.060 ,0,1,0.,24.0,0.,24.0
1979-07-28 19:47:07.060 ,0,0,0.,24.0,0.,24.0
1979-07-28 19:47:31.060 ,0,1,0.,24.0,0.,24.0
1979-07-28 19:47:55.060 ,0,0,0.,24.0,0.,24.0
1979-07-28 19:48:19.060 ,1,1,0.,24.0,0.,24.0
1979-07-28 19:48:43.060 ,1,0,0.,24.0,0.,24.0
1979-07-28 19:49:07.060 ,2,1,0.,24.0,0.,24.0
1979-07-28 19:49:31.060 ,2,0,0.,24.0,0.,24.0
1979-07-28 19:49:55.060 ,3,1,0.,24.0,0.,24.0
1979-07-28 19:50:19.060 ,3,0,0.,24.0,0.,24.0
1979-07-28 19:50:43.060 ,4,1,0.,24.0,0.,24.0
1979-07-28 19:51:07.060 ,4,0,0.,24.0,0.,24.0
1979-07-28 19:51:31.060 ,5,1,0.,24.0,0.,24.0
1979-07-28 19:51:55.060 ,5,0,0.,24.0,0.,24.0
1979-07-28 19:52:19.060 ,6,1,0.,24.0,0.,24.0
1979-07-28 19:52:43.060 ,6,0,0.,24.0,0.,24.0
1979-07-28 19:53:07.060 ,7,1,0.,24.0,0.,24.0
1979-07-28 19:53:31.060 ,7,0,0.,24.0,0.,24.0
1979-07-28 19:53:55.060 ,7,1,0.,24.0,0.,24.0
1979-07-28 19:54:19.060 ,7,0,0.,24.0,0.,24.0
1979-07-28 19:54:43.060 ,6,1,0.,24.0,0.,24.0
1979-07-28 19:55:07.060 ,6,0,0.,24.0,0.,24.0
1979-07-28 19:55:31.060 ,5,1,0.,24.0,0.,24.0
1979-07-28 19:55:55.060 ,5,0,0.,24.0,0.,24.0
1979-07-28 19:56:19.060 ,4,1,0.,24.0,0.,24.0
1979-07-28 19:56:43.060 ,4,0,0.,24.0,0.,24.0
1979-07-28 19:57:07.060 ,3,1,0.,24.0,0.,24.0
1979-07-28 19:57:31.060 ,3,0,0.,24.0,0.,24.0
1979-07-28 19:57:55.060 ,2,1,0.,24.0,0.,24.0
1979-07-28 19:58:19.060 ,2,0,0.,24.0,0.,24.0
1979-07-28 19:58:43.060 ,1,1,0.,24.0,0.,24.0
1979-07-28 19:59:07.060 ,1,0,0.,24.0,0.,24.0
1979-07-28 19:59:31.060 ,0,1,0.,24.0,0.,24.0
1979-07-28 19:59:55.060 ,0,0,0.,24.0,0.,24.0
1979-07-28 20:00:19.060 ,0,1,0.,24.0,0.,24.0
1979-07-28 20:00:43.060 ,0,0,0.,24.0,0.,24.0
1979-07-28 20:01:07.060 ,1,1,0.,24.0,0.,24.0
1979-07-28 20:01:31.060 ,1,0,0.,24.0,0.,24.0
1979-07-28 20:01:55.060 ,2,1,0.,24.0,0.,24.0
1979-07-28 20:02:19.060 ,2,0,0.,24.0,0.,24.0
1979-07-28 20:02:43.060 ,3,1,0.,24.0,0.,24.0
1979-07-28 20:03:07.060 ,3,0,0.,24.0,0.,24.0
1979-07-28 20:03:31.060 ,4,1,0.,24.0,0.,24.0
1979-07-28 20:03:55.060 ,4,0,0.,24.0,0.,24.0
1979-07-28 20:04:19.060 ,5,1,0.,24.0,0.,24.0
1979-07-28 20:04:43.060 ,5,0,0.,24.0,0.,24.0
1979-07-28 20:05:07.060 ,6,1,0.,24.0,0.,24.0
1979-07-28 20:05:31.060 ,6,0,0.,24.0,0.,24.0
1979-07-28 20:05:55.060 ,7,1,0.,24.0,0.,24.0
1979-07-28 20:06:19.060 ,7,0,0.,24.0,0.,24.0
1979-07-28 20:06:43.060 ,7,1,0.,24.0,0.,24.0
1979-07-28 20:07:07.060 ,7,0,0.,24.0,0.,24.0
1979-07-28 20:07:31.060 ,6,1,0.,24.0,0.,24.0
1979-07-28 20:07:55.060 ,6,0,0.,24.0,0.,24.0
1979-07-28 20:08:19.060 ,5,1,0.,24.0,0.,24.0
1979-07-28 20:08:43.060 ,5,0,0.,24.0,0.,24.0
1979-07-28 20:09:07.060 ,4,1,0.,24.0,0.,24.0
1979-07-28 20:09:31.060 ,4,0,0.,24.0,0.,24.0
1979-07-28 20:09:55.060 ,3,1,1.,24.0,0.,24.0
1979-07-28 20:10:19.060 ,3,0,0.,24.0,0.,24.0
1979-07-28 20:10:43.060 ,2,1,0.,24.0,0.,24.0
1979-07-28 20:11:07.060 ,2,0,0.,24.0,0.,24.0
1979-07-28 20:11:31.060 ,1,1,0.,24.0,0.,24.0
1979-07-28 20:11:55.060 ,1,0,0.,24.0,0.,24.0
1979-07-28 20:12:19.060 ,0,1,0.,24.0,0.,24.0
1979-07-28 20:12:43.060 ,0,0,0.,24.0,0.,24.0
1979-07-28 20:13:07.060 ,0,1,0.,24.0,0.,24.0
1979-07-28 20:13:31.060 ,0,0,0.,24.0,0.,24.0
1979-07-28 20:13:55.060 ,1,1,0.,24.0,0.,24.0
1979-07-28 20:14:19.060 ,1,0,0.,24.0,0.,24.0
1979-07-28 20:14:43.060 ,2,1,0.,24.0,0.,24.0
1979-07-28 20:15:07.060 ,2,0,0.,24.0,0.,24.0
1979-07-28 20:15:31.060 ,3,1,0.,24.0,0.,24.0
1979-07-28 20:15:55.060 ,3,0,0.,24.0,0.,24.0
1979-07-28 20:16:19.060 ,4,1,0.,24.0,0.,24.0
1979-07-28 20:16:43.060 ,4,0,0.,24.0,0.,24.0
1979-07-28 20:17:07.060 ,5,1,0.,24.0,0.,24.0
1979-07-28 20:17:31.060 ,5,0,0.,24.0,0.,24.0
1979-07-28 20:17:55.060 ,6,1,0.,24.0,0.,24.0
1979-07-28 20:18:19.060 ,6,0,0.,24.0,0.,24.0
1979-07-28 20:18:43.060 ,7,0,0.,24.0,0.,24.0
1979-07-28 20:19:07.060 ,7,0,0.,24.0,0.,24.0
1979-07-28 20:19:31.060 ,3,1,0.,24.0,0.,24.0
1979-07-28 20:19:55.060 ,0,1,0.,24.0,0.,24.0
1979-07-28 20:20:19.060 ,4,1,0.,24.0,0.,24.0
1979-07-28 20:20:43.060 ,7,1,0.,24.0,0.,24.0
1979-07-28 20:21:07.060 ,3,1,0.,24.0,0.,24.0
1979-07-28 20:21:31.060 ,0,1,0.,24.0,0.,24.0
1979-07-28 20:21:55.060 ,4,1,0.,24.0,0.,24.0
1979-07-28 20:22:19.060 ,7,1,0.,24.0,0.,24.0
1979-07-28 20:22:43.060 ,3,1,0.,24.0,0.,24.0
1979-07-28 20:23:07.060 ,0,1,0.,24.0,0.,24.0
1979-07-28 20:23:31.060 ,4,1,0.,24.0,0.,24.0
1979-07-28 20:23:55.060 ,7,1,0.,24.0,0.,24.0
1979-07-28 20:24:19.060 ,3,1,0.,24.0,0.,24.0
1979-07-28 20:24:43.060 ,0,1,0.,24.0,0.,24.0
1979-07-28 20:25:07.060 ,4,1,0.,24.0,0.,24.0
1979-07-28 20:25:31.060 ,7,1,0.,24.0,0.,24.0
1979-07-28 20:25:55.060 ,3,1,0.,24.0,0.,24.0
1979-07-28 20:26:19.060 ,0,1,0.,24.0,0.,24.0
1979-07-28 20:26:43.060 ,4,1,0.,24.0,0.,24.0
1979-07-28 20:27:07.060 ,7,1,0.,24.0,0.,24.0
1979-07-28 20:27:31.060 ,3,1,0.,24.0,0.,24.0
1979-07-28 20:27:55.060 ,0,1,0.,24.0,0.,24.0
1979-07-28 20:28:19.060 ,4,1,0.,24.0,0.,24.0
1979-07-28 20:28:43.060 ,7,1,0.,24.0,0.,24.0
1979-07-28 20:29:07.060 ,3,1,0.,24.0,0.,24.0
1979-07-28 20:29:31.060 ,0,1,0.,24.0,0.,24.0
1979-07-28 20:29:55.060 ,0,0,0.,24.0,0.,24.0
1979-07-28 20:30:19.060 ,0,0,0.,24.0,0.,24.0
1979-07-28 20:30:43.060 ,5,1,0.,24.0,0.,24.0
1979-07-28 20:31:07.060 ,5,0,0.,24.0,0.,24.0
1979-07-28 20:31:31.060 ,4,1,0.,24.0,0.,24.0
1979-07-28 20:31:55.060 ,4,0,0.,24.0,0.,24.0
1979-07-28 20:32:19.060 ,3,1,0.,24.0,0.,24.0
1979-07-28 20:32:43.060 ,3,0,0.,24.0,0.,24.0
1979-07-28 20:33:07.060 ,2,1,0.,24.0,0.,24.0
1979-07-28 20:33:31.060 ,2,0,0.,24.0,0.,24.0
1979-07-28 20:33:55.060 ,1,1,0.,24.0,0.,24.0
1979-07-28 20:34:19.060 ,1,0,0.,24.0,0.,24.0
1979-07-28 20:34:43.060 ,0,1,0.,24.0,0.,24.0
1979-07-28 20:35:07.060 ,0,0,0.,24.0,0.,24.0
1979-07-28 20:35:31.060 ,0,1,0.,24.0,0.,24.0
1979-07-28 20:35:55.060 ,0,0,0.,24.0,0.,24.0
1979-07-28 20:36:19.060 ,1,1,0.,24.0,0.,24.0
1979-07-28 20:36:43.060 ,1,0,0.,24.0,0.,24.0
1979-07-28 20:37:07.060 ,2,1,0.,24.0,0.,24.0
1979-07-28 20:37:31.060 ,2,0,0.,24.0,0.,24.0
1979-07-28 20:37:55.060 ,3,1,0.,24.0,0.,24.0
1979-07-28 20:38:19.060 ,3,0,0.,24.0,0.,24.0
1979-07-28 20:38:43.060 ,4,1,0.,24.0,0.,24.0
1979-07-28 20:39:07.060 ,4,0,0.,24.0,0.,24.0
1979-07-28 20:39:31.060 ,5,1,0.,24.0,0.,24.0
1979-07-28 20:39:55.060 ,5,0,0.,24.0,0.,24.0
1979-07-28 20:40:19.060 ,6,1,0.,24.0,0.,24.0
1979-07-28 20:40:43.060 ,6,0,0.,24.0,0.,24.0
1979-07-28 20:41:07.060 ,7,1,0.,24.0,0.,24.0
1979-07-28 20:41:31.060 ,7,0,0.,24.0,0.,24.0
1979-07-28 20:41:55.060 ,7,1,0.,24.0,0.,24.0
1979-07-28 20:42:19.060 ,7,0,0.,24.0,0.,24.0
1979-07-28 20:42:43.060 ,6,1,0.,24.0,0.,24.0
1979-07-28 20:43:07.060 ,6,0,0.,24.0,0.,24.0
1979-07-28 20:43:31.060 ,5,1,0.,24.0,0.,24.0
1979-07-28 20:43:55.060 ,5,0,0.,24.0,0.,24.0
1979-07-28 20:44:19.060 ,4,1,0.,24.0,0.,24.0
1979-07-28 20:44:43.060 ,4,0,0.,24.0,0.,24.0
1979-07-28 20:45:07.060 ,3,1,0.,24.0,0.,24.0
1979-07-28 20:45:31.060 ,3,0,0.,24.0,0.,24.0
1979-07-28 20:45:55.060 ,2,1,0.,24.0,0.,24.0
1979-07-28 20:46:19.060 ,2,0,0.,24.0,0.,24.0
1979-07-28 20:46:43.060 ,1,1,0.,24.0,0.,24.0
1979-07-28 20:47:07.060 ,1,0,0.,24.0,0.,24.0
1979-07-28 20:47:31.060 ,0,1,0.,24.0,0.,24.0
1979-07-28 20:47:55.060 ,0,0,0.,24.0,0.,24.0
1979-07-28 20:48:19.060 ,0,1,0.,24.0,0.,24.0
1979-07-28 20:48:43.060 ,0,0,0.,24.0,0.,24.0
1979-07-28 20:49:07.060 ,1,1,0.,24.0,0.,24.0
1979-07-28 20:49:31.060 ,1,0,0.,24.0,0.,24.0
1979-07-28 20:49:55.060 ,2,1,0.,24.0,0.,24.0
1979-07-28 20:50:19.060 ,2,0,0.,24.0,0.,24.0
1979-07-28 20:50:43.060 ,3,1,0.,24.0,0.,24.0
1979-07-28 20:51:07.060 ,3,0,0.,24.0,0.,24.0
1979-07-28 20:51:31.060 ,4,1,0.,24.0,0.,24.0
1979-07-28 20:51:55.060 ,4,0,0.,24.0,0.,24.0
1979-07-28 20:52:19.060 ,5,1,0.,24.0,0.,24.0
1979-07-28 20:52:43.060 ,5,0,0.,24.0,0.,24.0
1979-07-28 20:53:07.060 ,6,1,0.,24.0,0.,24.0
1979-07-28 20:53:31.060 ,6,0,0.,24.0,0.,24.0
1979-07-28 20:53:55.060 ,7,1,0.,24.0,0.,24.0
1979-07-28 20:54:19.060 ,7,0,0.,24.0,0.,24.0
1979-07-28 20:54:43.060 ,0,0,,0,,0
1979-07-28 20:55:07.060 ,0,0,,0,,0
1979-07-28 20:58:36.460 ,0,0,0.,24.0,0.,24.0
1979-07-28 20:58:43.060 ,2,1,0.,24.0,0.,24.0
1979-07-28 20:59:07.060 ,2,0,0.,24.0,0.,24.0
1979-07-28 20:59:31.060 ,1,1,0.,24.0,0.,24.0
1979-07-28 20:59:55.060 ,1,0,0.,24.0,0.,24.0
1979-07-28 21:00:19.060 ,0,1,0.,24.0,0.,24.0
